Marion, OH

3:30 AM EDT on July 24, 2017 (GMT -0400)
Marion Municipal

Weather History for KMNN - February, 2013

Change the Weather History Date:

Thursday, February 28, 2013

  Actual Average (KDLZ) Record (KDLZ)
Temperature  
Mean Temperature 33 °F -  
Max Temperature 36 °F 40 °F 65 °F (1939)
Min Temperature 30 °F 21 °F -7 °F (2015)
Degree Days  
Heating Degree Days 32    
Moisture  
Dew Point 30 °F    
Average Humidity 89    
Maximum Humidity 96    
Minimum Humidity 80    
Precipitation  
Precipitation 0.08 in - - ()
Sea Level Pressure  
Sea Level Pressure 29.75 in    
Wind  
Wind Speed 11 mph (NW)    
Max Wind Speed 13 mph    
Max Gust Speed 18 mph    
Visibility 6 miles    
Events Fog , Rain , Snow    
Averages and records for this station are not official NWS values.
T = Trace of Precipitation, MM = Missing Value Source: NWS Daily Summary

Daily Weather History Graph

Daily Weather History Graph

Search for Another Location

Airport or City:

Trip Planner

Search our weather history database for the weather conditions in past years. The results will help you decide how hot, cold, wet, or windy it might be!

Date:

Astronomy

Feb. 28, 2013 Rise Set
Actual Time 7:07 AM EST 6:22 PM EST
Civil Twilight 6:39 AM EST 6:50 PM EST
Nautical Twilight 6:08 AM EST 7:21 PM EST
Astronomical Twilight 5:36 AM EST 7:53 PM EST
Moon 9:49 PM EST (2/28) 8:15 AM EST (2/28)
Length of Visible Light 12h 10m
Length of Day
11h 15m
Waning Gibbous, 91% of the Moon is Illuminated
Feb 28
Waning Gibbous
Mar 4
Last Quarter
Mar 11
New
Mar 19
First Quarter
Mar 27
Full

Hourly Weather History & Observations

Time (EST) Temp. Windchill Dew Point Humidity Pressure Visibility Wind Dir Wind Speed Gust Speed Precip Events Conditions
12:20 AM 32.0 °F 23.0 °F 28.4 °F 87% 29.61 in 6.0 mi WSW 11.5 mph - 0.00 in Snow Light Snow
12:44 AM 30.2 °F 21.3 °F 28.4 °F 93% 29.61 in 5.0 mi WSW 10.4 mph - 0.00 in   Overcast
12:53 AM 30.9 °F 21.2 °F 28.0 °F 89% 29.64 in 7.0 mi WSW 12.7 mph - 0.00 in   Overcast
1:08 AM 30.2 °F 21.3 °F 28.4 °F 93% 29.62 in 10.0 mi WSW 10.4 mph - N/A   Overcast
1:53 AM 30.9 °F 22.2 °F 28.0 °F 89% 29.65 in 10.0 mi WSW 10.4 mph 18.4 mph N/A   Overcast
2:53 AM 30.9 °F 22.8 °F 28.0 °F 89% 29.64 in 10.0 mi SW 9.2 mph - N/A   Overcast
3:53 AM 30.9 °F 22.2 °F 28.0 °F 89% 29.64 in 10.0 mi WSW 10.4 mph - N/A   Overcast
4:53 AM 30.9 °F 21.2 °F 28.0 °F 89% 29.64 in 6.0 mi SW 12.7 mph - 0.00 in Snow Light Snow
5:53 AM 30.9 °F 21.7 °F 28.0 °F 89% 29.64 in 7.0 mi WSW 11.5 mph - 0.00 in   Overcast
6:48 AM 30.2 °F 21.3 °F 28.4 °F 93% 29.61 in 5.0 mi WSW 10.4 mph - 0.00 in   Overcast
6:53 AM 30.9 °F 22.8 °F 28.9 °F 92% 29.65 in 6.0 mi WSW 9.2 mph - 0.00 in   Overcast
7:53 AM 30.9 °F 22.8 °F 28.9 °F 92% 29.66 in 5.0 mi West 9.2 mph - N/A   Overcast
9:06 AM 32.0 °F 24.2 °F 30.2 °F 93% 29.65 in 1.5 mi West 9.2 mph - 0.00 in Snow Light Snow
9:13 AM 32.0 °F 24.2 °F 30.2 °F 93% 29.65 in 0.8 mi West 9.2 mph - 0.01 in Snow Light Snow
9:42 AM 32.0 °F 23.0 °F 30.2 °F 93% 29.64 in 1.0 mi West 11.5 mph - 0.01 in Snow Light Snow
9:53 AM 32.0 °F 24.2 °F 30.9 °F 96% 29.68 in 1.2 mi West 9.2 mph - 0.01 in Snow Light Snow
10:16 AM 33.8 °F 24.8 °F 30.2 °F 87% 29.66 in 1.0 mi WNW 12.7 mph - 0.01 in Snow Light Snow
10:27 AM 33.8 °F 25.8 °F 30.2 °F 87% 29.66 in 1.5 mi WNW 10.4 mph - 0.01 in Snow Light Snow
10:37 AM 33.8 °F 25.3 °F 30.2 °F 87% 29.66 in 2.5 mi NW 11.5 mph - 0.01 in Snow Light Snow
10:53 AM 33.1 °F 23.9 °F 30.9 °F 92% 29.70 in 2.5 mi WNW 12.7 mph - 0.01 in Snow Light Snow
11:01 AM 33.8 °F 25.3 °F 30.2 °F 87% 29.68 in 5.0 mi NW 11.5 mph - 0.00 in Snow Light Snow
11:14 AM 33.8 °F 24.8 °F 30.2 °F 87% 29.68 in 1.8 mi NW 12.7 mph - 0.00 in Snow Light Snow
11:29 AM 33.8 °F 24.8 °F 32.0 °F 93% 29.69 in 3.0 mi NW 12.7 mph - 0.00 in Snow Light Snow
11:53 AM 33.1 °F 23.9 °F 30.9 °F 92% 29.73 in 5.0 mi NW 12.7 mph - 0.00 in Snow Light Snow
12:53 PM 34.0 °F 25.0 °F 30.9 °F 89% 29.74 in 10.0 mi NNW 12.7 mph - 0.00 in   Overcast
1:04 PM 33.8 °F 26.4 °F 30.2 °F 87% 29.71 in 10.0 mi NNW 9.2 mph 18.4 mph N/A   Overcast
1:53 PM 35.1 °F 27.4 °F 30.9 °F 85% 29.75 in 10.0 mi NNW 10.4 mph - N/A   Overcast
2:17 PM 35.6 °F 28.0 °F 32.0 °F 87% 29.72 in 10.0 mi NNW 10.4 mph - N/A   Overcast
2:29 PM 33.8 °F 25.8 °F 32.0 °F 93% 29.73 in 6.0 mi NNW 10.4 mph - N/A   Overcast
2:45 PM 35.6 °F 29.2 °F 33.8 °F 93% 29.73 in 10.0 mi NW 8.1 mph - N/A   Overcast
2:53 PM 35.1 °F 27.4 °F 32.0 °F 89% 29.77 in 10.0 mi NW 10.4 mph - N/A   Overcast
3:53 PM 36.0 °F 29.0 °F 32.0 °F 86% 29.78 in 10.0 mi NW 9.2 mph - N/A   Overcast
4:10 PM 35.6 °F 28.6 °F 32.0 °F 87% 29.76 in 5.0 mi NW 9.2 mph - 0.00 in Rain Light Rain
4:35 PM 35.6 °F 28.6 °F 33.8 °F 93% 29.77 in 4.0 mi NW 9.2 mph - 0.00 in   Overcast
4:44 PM 35.6 °F 29.9 °F 33.8 °F 93% 29.78 in 8.0 mi NW 6.9 mph - 0.00 in   Overcast
4:53 PM 35.1 °F 28.6 °F 33.1 °F 92% 29.81 in 7.0 mi WNW 8.1 mph - 0.00 in   Overcast
5:02 PM 33.8 °F 24.8 °F 30.2 °F 87% 29.78 in 1.8 mi WNW 12.7 mph - 0.01 in Snow Light Snow
5:12 PM 33.8 °F 25.3 °F 32.0 °F 93% 29.79 in 4.0 mi NW 11.5 mph - 0.02 in Snow Light Snow
5:29 PM 33.8 °F 27.0 °F 32.0 °F 93% 29.80 in 6.0 mi NNW 8.1 mph - 0.02 in   Overcast
5:40 PM 33.8 °F 25.8 °F 32.0 °F 93% 29.81 in 1.8 mi North 10.4 mph - 0.02 in Rain Light Rain
5:43 PM 33.8 °F 25.8 °F 30.2 °F 87% 29.81 in 1.0 mi North 10.4 mph - 0.03 in Snow Light Snow
5:51 PM 32.0 °F 24.2 °F 30.2 °F 93% 29.82 in 0.5 mi North 9.2 mph - 0.04 in Fog , Snow Light Snow
5:53 PM 32.0 °F 24.2 °F 30.9 °F 96% 29.85 in 0.8 mi North 9.2 mph - 0.04 in Snow Light Snow
5:57 PM 33.8 °F 27.0 °F 30.2 °F 87% 29.82 in 1.2 mi NNW 8.1 mph - 0.00 in Snow Light Snow
6:01 PM 33.8 °F 24.8 °F 30.2 °F 87% 29.82 in 3.0 mi NNW 12.7 mph - 0.01 in Snow Light Snow
6:12 PM 33.8 °F 26.4 °F 30.2 °F 87% 29.83 in 6.0 mi North 9.2 mph - 0.01 in   Overcast
6:53 PM 33.1 °F 26.1 °F 30.9 °F 92% 29.88 in 4.0 mi NNW 8.1 mph - 0.01 in   Overcast
7:14 PM 33.8 °F 25.3 °F 30.2 °F 87% 29.86 in 4.0 mi NNW 11.5 mph - 0.01 in Snow Light Snow
7:32 PM 33.8 °F 25.8 °F 30.2 °F 87% 29.87 in 4.0 mi NNW 10.4 mph - 0.01 in   Overcast
7:39 PM 33.8 °F 25.3 °F 30.2 °F 87% 29.87 in 4.0 mi NNW 11.5 mph - 0.01 in   Overcast
7:53 PM 33.1 °F 24.4 °F 30.9 °F 92% 29.91 in 8.0 mi North 11.5 mph - 0.01 in   Overcast
8:10 PM 33.8 °F 26.4 °F 30.2 °F 87% 29.88 in 10.0 mi NNW 9.2 mph - N/A   Overcast
8:53 PM 33.1 °F 23.9 °F 28.0 °F 82% 29.92 in 10.0 mi North 12.7 mph - N/A   Overcast
9:53 PM 32.0 °F 24.2 °F 28.0 °F 85% 29.93 in 10.0 mi NNW 9.2 mph - N/A   Overcast
10:32 PM 32.0 °F 23.6 °F 26.6 °F 80% 29.90 in 10.0 mi North 10.4 mph - N/A   Overcast
10:46 PM 32.0 °F 23.0 °F 26.6 °F 80% 29.90 in 10.0 mi North 11.5 mph - N/A   Overcast
11:09 PM 32.0 °F 22.5 °F 28.4 °F 87% 29.90 in 10.0 mi North 12.7 mph - N/A   Overcast
11:28 PM 32.0 °F 23.0 °F 28.4 °F 87% 29.90 in 10.0 mi North 11.5 mph - N/A   Overcast
11:53 PM 30.9 °F 22.2 °F 28.0 °F 89% 29.94 in 10.0 mi North 10.4 mph - N/A   Overcast